Location: Blairvadach
(56.2780°N, 6.9720°W)
Time: 04:53:16
(UTC+01:00)

OTV 5 (USA 277) - Pass Details

Date: 28 April 2019
Orbit: 310 x 325 km, 54.5° (Epoch: 08 May)

Event Time Altitude Azimuth Distance (km) Brightness Sun altitude
Rises 23:06:37 0° 263° (W) 2,038 ? -13.7°
Reaches altitude 10° 23:08:35 10° 259° (W) 1,208 ? -13.9°
Maximum altitude 23:11:13 59° 179° (S) 367 ? -14.1°
Enters shadow 23:12:03 36° 116° (ESE) 514 ? -14.1°
